Regional Weather Roundup
Issued by NWS

Home | Current Version | Previous Version | Graphics & Text | Print | Product List | Glossary On
Versions: 1 2 3 4 5 6 7 8 9 10 11 12 13 14 15 16 17 18 19 20 21 22 23 24 25 26 27 28 29 30 31 32 33 34 35 36 37 38 39 40 41 42 43 44 45 46 47 48 49 50
858
ASUS44 KLIX 310307
RWRLA
LOUISIANA WEATHER ROUNDUP
NATIONAL WEATHER SERVICE NEW ORLEANS LA
1000 PM CDT MON MAR 30 2015

NOTE: "FAIR" INDICATES FEW OR NO CLOUDS BELOW 12,000 FEET WITH NO
      SIGNIFICANT WEATHER AND/OR OBSTRUCTIONS TO VISIBILITY.
      SKY/WX - SKY CONDITION AND SIGNIFICANT WEATHER.
      TMP - AIR TEMPERATURE.    DP   - DEWPOINT TEMPERATURE.
      RH  - RELATIVE HUMIDITY.  PRES - PRESSURE.
      HX  - HEAT INDEX.         WCI  - WIND CHILL INDEX.

*  THESE STATIONS ARE NOT NWS OR FAA STATIONS AND ARE NOT UNDER
   NWS QUALITY CONTROL.

LAZ040-048-061>063-065-066-069-310400-
SOUTHEAST LOUISIANA

CITY           SKY/WX    TMP DP  RH WIND       PRES   REMARKS
N.O. AUDUBON     N/A     67  67 100 MISG        N/A
N.O. INTL ARPT CLEAR     70  61  73 SW8       30.17R
N.O. LAKEFRONT CLEAR     74  63  68 SW13      30.17R
SLIDELL        CLEAR     72  63  73 VRB5      30.15R
BATON ROUGE    CLEAR     70  61  73 SW8       30.15R
BOOTHVILLE     CLEAR     71  67  87 SW7       30.18R
BELLE CHASSE   PTCLDY    67  62  84 SW5       30.17R
BOGALUSA*        N/A     68  60  74 W3        30.16R
GALLIANO*      CLEAR     68  65  88 SW3       30.18R
NEW ROADS*     FAIR      68  58  70 S5        30.15S
GONZALES*      FAIR      68  63  85 CALM      30.16S
HAMMOND*       MOCLDY    72  59  64 W8        30.17R
HOUMA*         CLEAR     64  63  96 CALM      30.17S
PORT FOURCHON* CLEAR     72  66  83 CALM      30.21S

$$

LAZ041-044-053-054-310400-
SOUTHWEST LOUISIANA

CITY           SKY/WX    TMP DP  RH WIND       PRES   REMARKS
LAKE CHARLES   CLEAR     66  63  90 S5        30.15R
LAFAYETTE      CLEAR     65  60  84 SW6       30.16R
PATTERSON      CLEAR     64  61  88 SW6       30.18S
SALT POINT       N/A     66  64  93 CALM      30.16R
NEW IBERIA     CLEAR     65  61  87 S6        30.17R
CHENAULT AIRPK CLEAR     66  64  94 S5        30.16R

$$

LAZ027-028-310400-
CENTRAL LOUISIANA

CITY           SKY/WX    TMP DP  RH WIND       PRES   REMARKS
FORT POLK      CLEAR     69  61  75 S8        30.12R
ALEXANDRIA INT CLEAR     70  61  73 S9        30.11R
ALEXANDRIA     CLEAR     69  60  73 SW6       30.13R

$$

LAZ001-002-310400-
NORTHWEST LOUISIANA

CITY           SKY/WX    TMP DP  RH WIND       PRES   REMARKS
SHREVEPORT     PTCLDY    64  61  90 CALM      30.09R
BARKSDALE AFB  PTCLDY    64  63  94 SE2       30.09S
DTN SHREVEPORT PTCLDY    65  60  84 CALM      30.10R

$$

LAZ014-016-310400-
NORTHEAST LOUISIANA

CITY           SKY/WX    TMP DP  RH WIND       PRES   REMARKS
MONROE         CLEAR     65  62  90 NE3       30.12R
TALLULAH       CLEAR     62  59  90 CALM      30.12R

$$




USA.gov is the U.S. government's official web portal to all federal, state and local government web resources and services.